Overview Statistics Trail Chart Weather Telemetry Raw packets
 

This is the latest recevied weather packets stored in our database for station/object K1RFS. If no packets are shown the sender has not sent any weather packets the latest 10 day(s).

<< 89 90 91 92 93 94 95 >>
Time Temp. Humidity Pressure Rain* Wind** Luminosity Snow
1788036444 21.67° C 58% 1004.5 hPa 0 mm - 289 W/m² -
1788036138 21.67° C 59% 1004.4 hPa 0 mm - 175 W/m² -
1788035833 21.11° C 61% 1004.7 hPa 0 mm - 659 W/m² -
1788035528 21.67° C 61% 1004.6 hPa 0 mm - 175 W/m² -
1788035223 21.11° C 62% 1004.9 hPa 0 mm - 121 W/m² -
1788034918 21.11° C 63% 1004.9 hPa 0 mm - 81 W/m² -
1788034614 21.67° C 61% 1004.8 hPa 0 mm - 138 W/m² -
1788034310 21.67° C 62% 1004.9 hPa 0 mm - 357 W/m² -
1788034004 21.67° C 65% 1004.8 hPa 0 mm - 516 W/m² -
1788033699 22.22° C 62% 1004.7 hPa 0 mm - 730 W/m² -
1788033398 21.11° C 63% 1004.8 hPa 0 mm - 462 W/m² -
1788033094 21.67° C 62% 1004.9 hPa 0 mm - 755 W/m² -
1788032793 21.11° C 64% 1005 hPa 0 mm - 638 W/m² -
1788032497 20.56° C 65% 1005 hPa 0 mm - 730 W/m² -
1788032184 20° C 66% 1005 hPa 0 mm - 650 W/m² -
1788031880 20° C 69% 1005.3 hPa 0 mm - 789 W/m² -
1788031580 20° C 67% 1005.4 hPa 0 mm - 217 W/m² -
1788031279 20° C 69% 1005.5 hPa 0 mm - 423 W/m² -
1788030979 20° C 70% 1005.6 hPa 0 mm - 374 W/m² -
1788030678 20° C 69% 1005.5 hPa 0 mm - 180 W/m² -
1788030374 19.44° C 69% 1005.6 hPa 0 mm - 400 W/m² -
1788030069 19.44° C 71% 1005.8 hPa 0 mm - 225 W/m² -
1788029769 19.44° C 71% 1006.1 hPa 0 mm - 413 W/m² -
1788029464 19.44° C 79% 1006.2 hPa 0 mm - 349 W/m² -
1788029163 18.89° C 79% 1006.3 hPa 0 mm - 124 W/m² -

* Rain latest hour (hover to see other rain measurements)
** Current wind speed in m/s (hover to see current wind gust speed)